Simultaneous Nadir Overpasses (SNOs) Predictions

Prediction of SNOs between LANDSAT-8 and METOP-A Satellite Orbit:

Table of predicted SNOs for the next 14.0 days since TLE Epoch: 11/21/2015
Index Date (LANDSAT-8) Time (LANDSAT-8) Lat,Lon (LANDSAT-8) SZA (LANDSAT-8 ) Date (METOP-A) Time (METOP-A) Lat,Lon (METOP-A) SZA (METOP-A ) Distance(km) Time Diff (sec)
1 11/22/2015 04:45:18 80.07, 136.90 101.49 11/22/2015 04:44:05 80.39, 135.44 101.62 44.70 73
2 11/22/2015 05:34:09 -81.12, -43.68 76.54 11/22/2015 05:34:08 -81.12, -43.70 76.55 0.36 1
3 11/22/2015 06:23:34 81.15, 124.43 103.54 11/22/2015 06:24:46 81.15, 124.50 103.58 1.14 72
4 11/25/2015 00:18:58 81.09,-145.33 103.95 11/25/2015 00:17:53 81.09,-145.51 103.90 3.15 65
5 11/25/2015 01:08:23 -81.13, 22.99 75.95 11/25/2015 01:08:31 -81.13, 23.11 75.93 2.18 8
6
